CW3224 Weather Reports


time (UTC)temp
C
wind
direction
speed
KPH
gust
KPH
rain 1hr
cm
rain 24hr
cm
rain mn
cm
humidity
%
barometer
mb
20260906212012 20 15 0.0 4.8 0.00 0.64 0.46 67 1013.6
20260906211453 20 8 0.0 4.8 0.00 0.66 0.46 67 1013.4
20260906210012 20 39 0.0 0.0 0.00 0.69 0.46 68 1013.4
20260906205010 20 4 0.0 3.2 0.00 0.74 0.46 68 1013.4
20260906204010 20 47 0.0 1.6 0.00 0.76 0.46 67 1013.3
20260906203011 20 46 0.0 6.4 0.00 0.76 0.46 67 1013.3
20260906202009 20 12 0.0 3.2 0.00 0.76 0.46 65 1013.3
20260906201010 20 27 0.0 4.8 0.00 0.76 0.46 67 1013.2
20260906200010 20 160 0.0 1.6 0.00 0.76 0.46 69 1013.2
20260906195010 20 229 0.0 3.2 0.00 0.76 0.46 71 1013.3
20260906194011 20 39 0.0 1.6 0.00 0.76 0.46 72 1013.4
20260906192956 20 37 0.0 3.2 0.00 0.76 0.46 71 1013.4
20260906191956 20 8 0.0 1.6 0.00 0.76 0.46 73 1013.4
20260906191450 20 170 1.6 6.4 0.00 0.76 0.46 77 1013.6
20260906185956 20 187 0.0 6.4 0.00 0.76 0.46 77 1013.9
20260906184957 20 4 0.0 0.0 0.00 0.76 0.46 75 1013.9
20260906183955 20 357 0.0 0.0 0.00 0.76 0.46 74 1013.9
20260906183409 21 179 1.6 6.4 0.00 0.76 0.46 71 1013.9
20260906183040 20 357 0.0 0.0 0.00 0.76 0.46 71 1013.9
20260906180954 21 179 3.2 4.8 0.00 0.76 0.46 73 1013.9
20260906175954 21 70 1.6 4.8 0.00 0.79 0.46 68 1014.0
20260906174954 21 154 0.0 4.8 0.00 0.81 0.46 68 1014.0
20260906173955 20 91 3.2 8.0 0.00 0.81 0.46 73 1014.3
20260906172947 20 2 1.6 6.4 0.00 0.81 0.46 74 1014.4
20260906171947 19 17 1.6 8.0 0.00 0.81 0.46 76 1014.4
20260906170948 18 150 1.6 4.8 0.00 0.81 0.46 80 1014.7
20260906170440 18 77 0.0 0.0 0.00 0.81 0.46 83 1014.8
20260906164948 17 77 0.0 3.2 0.00 0.81 0.46 82 1014.8
20260906163946 17 77 1.6 6.4 0.00 0.81 0.46 83 1014.9
20260906162945 18 60 0.0 6.4 0.00 0.81 0.46 83 1014.9
20260906161945 18 41 0.0 4.8 0.00 0.81 0.46 82 1014.9
20260906161428 18 232 0.0 0.0 0.00 0.81 0.46 83 1014.9
20260906155946 18 232 0.0 0.0 0.00 0.81 0.46 82 1015.0
20260906154943 18 301 0.0 1.6 0.00 0.81 0.46 82 1015.0
20260906153945 18 233 0.0 3.2 0.00 0.81 0.46 81 1015.1
20260906152943 18 260 0.0 4.8 0.00 0.81 0.46 83 1015.1
20260906151944 18 359 0.0 3.2 0.00 0.81 0.46 84 1015.1
20260906150943 18 31 1.6 4.8 0.00 0.81 0.46 84 1015.4
20260906145944 17 16 0.0 4.8 0.00 0.81 0.46 87 1015.5
20260906144934 17 94 0.0 4.8 0.00 0.81 0.46 89 1015.5
20260906143934 16 161 0.0 3.2 0.00 0.81 0.46 91 1015.5
20260906142934 16 69 0.0 0.0 0.00 0.81 0.46 92 1015.5
20260906141931 16 72 0.0 0.0 0.00 0.81 0.46 93 1015.5
20260906140930 16 79 0.0 0.0 0.00 0.81 0.46 94 1015.4
20260906140846 15 40 0.0 0.0 0.00 0.81 0.46 94 1015.3
20260906135409 15 42 0.0 0.0 0.00 0.81 0.46 94 1015.3
20260906133930 15 42 0.0 0.0 0.00 0.81 0.46 94 1015.2
20260906132928 15 42 0.0 0.0 0.00 0.81 0.46 94 1015.3
20260906131928 15 301 0.0 0.0 0.00 0.81 0.46 94 1015.3
20260906130926 15 43 0.0 0.0 0.00 0.81 0.46 94 1015.4
20260906125923 15 43 0.0 0.0 0.00 0.81 0.46 94 1015.4
20260906125358 15 43 0.0 0.0 0.00 0.81 0.46 94 1015.4
20260906123925 15 43 0.0 0.0 0.00 0.81 0.46 94 1015.5
20260906122923 15 43 0.0 0.0 0.00 0.81 0.46 94 1015.2
20260906121924 15 301 0.0 0.0 0.00 0.81 0.46 94 1015.2
20260906121406 14 301 0.0 0.0 0.00 0.81 0.46 94 1015.0
20260906115923 14 45 0.0 0.0 0.03 0.81 0.46 94 1014.9
20260906115403 14 301 0.0 0.0 0.03 0.81 0.46 94 1014.9
20260906113924 14 44 0.0 0.0 0.03 0.81 0.46 94 1014.9
20260906112923 14 45 0.0 0.0 0.03 0.81 0.46 94 1014.5
20260906112409 14 301 0.0 0.0 0.03 0.81 0.46 94 1014.5
20260906110924 14 42 0.0 0.0 0.03 0.81 0.46 94 1014.4
20260906105924 14 42 0.0 0.0 0.00 0.79 0.43 94 1014.4
20260906104922 14 42 0.0 0.0 0.03 0.79 0.43 94 1014.4
20260906103911 14 42 0.0 0.0 0.03 0.79 0.43 94 1014.1
20260906102911 14 42 0.0 0.0 0.03 0.79 0.43 94 1013.9
20260906102350 14 42 0.0 0.0 0.03 0.79 0.43 94 1013.9
20260906100911 14 42 0.0 0.0 0.03 0.79 0.43 94 1013.9
20260906100358 14 42 0.0 0.0 0.05 0.79 0.43 94 1013.9
20260906094909 14 42 0.0 0.0 0.03 0.76 0.41 93 1013.9
20260906093909 14 42 0.0 0.0 0.05 0.76 0.41 94 1013.7
20260906093819 14 42 0.0 0.0 0.13 0.76 0.41 93 1013.5
20260906091907 14 42 0.0 0.0 0.20 0.76 0.41 93 1013.5
20260906090905 14 42 0.0 0.0 0.20 0.76 0.41 93 1013.6
20260906090339 15 42 0.0 0.0 0.18 0.74 0.38 93 1013.4
20260906084903 15 39 0.0 0.0 0.18 0.74 0.38 93 1013.4
20260906083903 15 39 0.0 0.0 0.15 0.71 0.36 94 1013.3
20260906082903 15 44 0.0 0.0 0.08 0.64 0.28 94 1013.3
20260906081901 15 11 0.0 3.2 0.00 0.56 0.20 94 1013.3
20260906080916 15 95 0.0 0.0 0.08 0.56 0.20 93 1012.8
20260906080902 15 20 0.0 4.8 0.03 0.56 0.20 94 1013.0
20260906080303 15 95 0.0 0.0 0.10 0.56 0.20 93 1012.8
20260906073901 15 95 0.0 0.0 0.13 0.56 0.20 93 1012.8
20260906072858 15 95 0.0 0.0 0.13 0.56 0.20 93 1012.7
20260906071859 15 95 0.0 0.0 0.15 0.56 0.20 93 1012.7
20260906070858 15 95 0.0 0.0 0.13 0.53 0.18 93 1012.8
20260906065905 15 95 0.0 0.0 0.08 0.48 0.13 93 1012.8
20260906064858 15 95 0.0 0.0 0.05 0.46 0.10 93 1012.8
20260906063859 15 95 0.0 0.0 0.03 0.43 0.08 93 1012.7
20260906062900 15 95 0.0 0.0 0.03 0.43 0.08 93 1012.7
20260906061858 15 95 0.0 0.0 0.00 0.41 0.05 93 1012.7
20260906060856 15 95 0.0 0.0 0.00 0.41 0.05 93 1012.8
20260906055857 15 95 0.0 0.0 0.00 0.41 0.05 93 1012.8
20260906054857 15 96 0.0 0.0 0.03 0.41 0.05 93 1012.8
20260906053857 15 96 0.0 0.0 0.03 0.41 0.05 93 1012.8
20260906052856 15 301 0.0 0.0 0.03 0.41 0.05 93 1012.8
20260906051858 15 301 0.0 0.0 0.03 0.41 0.05 93 1012.8
20260906050855 15 301 0.0 0.0 0.03 0.41 0.05 93 1012.8
20260906050342 15 301 0.0 0.0 0.05 0.41 0.05 93 1012.9
20260906044854 15 301 0.0 0.0 0.03 0.38 0.03 93 1012.9
20260906044331 15 301 0.0 0.0 0.03 0.38 0.03 93 1012.9
20260906043331 15 301 0.0 0.0 0.03 0.38 0.03 93 1012.9
20260906041855 16 301 0.0 0.0 0.03 0.38 0.03 93 1012.9
20260906040844 16 301 0.0 0.0 0.03 0.38 0.03 93 1012.8
20260906035844 16 301 0.0 0.0 0.00 0.36 0.36 93 1012.8
20260906034845 16 301 0.0 0.0 0.00 0.36 0.36 92 1012.8
20260906033845 16 301 0.0 0.0 0.00 0.36 0.36 92 1012.6
20260906032844 16 301 0.0 0.0 0.00 0.36 0.36 93 1012.7
20260906032318 16 301 0.0 0.0 0.00 0.36 0.36 93 1012.7
20260906030843 16 96 0.0 0.0 0.00 0.36 0.36 93 1012.7
20260906025843 16 301 0.0 0.0 0.03 0.36 0.36 92 1012.6
20260906024842 16 301 0.0 0.0 0.03 0.36 0.36 92 1012.6
20260906024323 16 301 0.0 0.0 0.03 0.36 0.36 92 1012.7
20260906022843 16 301 0.0 0.0 0.05 0.36 0.36 92 1012.4
20260906021832 16 301 0.0 0.0 0.05 0.36 0.36 92 1012.4
20260906020832 16 301 0.0 0.0 0.05 0.36 0.36 92 1012.5
20260906015833 16 301 0.0 0.0 0.03 0.33 0.33 92 1012.4
20260906014831 16 301 0.0 0.0 0.03 0.33 0.33 92 1012.4
20260906013832 16 301 0.0 0.0 0.05 0.33 0.33 92 1012.8
20260906012832 16 301 0.0 1.6 0.03 0.30 0.30 92 1012.7
20260906011823 16 301 0.0 0.0 0.05 0.30 0.30 92 1012.7
20260906010823 16 96 0.0 0.0 0.05 0.30 0.30 92 1012.5
20260906005822 16 301 0.0 0.0 0.05 0.30 0.30 92 1012.3
20260906004822 16 301 0.0 0.0 0.05 0.30 0.30 92 1012.3
20260906003821 16 301 0.0 0.0 0.03 0.28 0.28 91 1012.3
20260906002820 16 301 0.0 0.0 0.03 0.28 0.28 91 1012.2
20260906001818 16 301 0.0 0.0 0.00 0.25 0.25 91 1012.2
20260906000818 17 301 0.0 0.0 0.00 0.25 0.25 91 1012.0
20260905235818 17 301 0.0 0.0 0.00 0.25 0.25 91 1012.0
20260905234817 17 301 0.0 0.0 0.00 0.25 0.25 91 1012.0
20260905233815 17 301 0.0 0.0 0.00 0.25 0.25 91 1011.8
20260905232813 17 301 0.0 0.0 0.00 0.25 0.25 91 1011.8
20260905231814 17 96 0.0 0.0 0.00 0.25 0.25 91 1011.8
20260905231251 17 301 0.0 0.0 0.00 0.25 0.25 91 1011.7
20260905225813 17 301 0.0 0.0 0.00 0.25 0.25 91 1011.4
20260905224809 17 301 0.0 0.0 0.00 0.25 0.25 90 1011.4
20260905223809 17 301 0.0 0.0 0.00 0.25 0.25 90 1011.3
20260905222809 17 301 0.0 0.0 0.05 0.25 0.25 90 1011.3
20260905221808 17 301 0.0 0.0 0.08 0.25 0.25 90 1011.3
20260905220805 17 301 0.0 0.0 0.10 0.25 0.25 89 1011.4
20260905215804 17 301 0.0 0.0 0.15 0.25 0.25 88 1011.1
20260905214802 17 301 0.0 0.0 0.18 0.25 0.25 88 1011.1
20260905213802 17 301 0.0 4.8 0.18 0.23 0.23 87 1011.0
20260905212755 18 301 0.0 4.8 0.15 0.20 0.20 86 1010.8